Qeqertarsuaq

KL  EN  DA
ASIAQ
Weather Now GREENLAND SURVEY
Updated [WGT/WGST] Temperature [°C] Wind [m/s] Air pressure [hPa] Relative humidity [%] Precipitation [mm]
Present Wind chill Speed Max
25.02 07:00-14,2-18,71,8 ⇙4,11015590,0
25.02 06:00-14,70,00,7 ⇙1,11015610,0
25.02 05:00-14,20,00,4 ⇘2,41016630,0
25.02 04:00-13,9-18,72,0 ⇘5,61015680,0
25.02 03:00-14,1-21,54,0 ⇒6,31014710,0
25.02 02:00-14,2-22,75,0 ⇒7,31014740,0
25.02 01:00-13,8-22,75,6 ⇘7,61013720,1
25.02 00:00-13,2-21,75,3 ⇘7,11013620,0
24.02 23:00-13,50,00,6 ⇙2,51012590,0
24.02 22:00-13,20,00,5 ⇙4,01012580,0
24.02 21:00-13,7-19,72,8 ⇙5,01011550,0
24.02 20:00-13,7-20,63,6 ⇙5,61010550,0
24.02 19:00-13,5-21,44,6 ⇙5,61009560,0
24.02 18:00-13,5-21,14,3 ⇙5,51008550,0
24.02 17:00-13,0-18,22,3 ⇙4,91008560,0
24.02 16:00-13,1-18,62,6 ⇙5,51007570,0
24.02 15:00-13,2-19,93,4 ⇙4,81006580,0
24.02 14:00-13,0-18,72,7 ⇙5,01005570,0
24.02 13:00-13,2-19,83,3 ⇙4,61005610,0
24.02 12:00-13,5-19,63,0 ⇙4,31005630,0
24.02 11:00-13,7-19,83,0 ⇙4,01003640,0
24.02 10:00-13,6-18,72,2 ⇐4,11003630,0
24.02 09:00-13,7-18,52,1 ⇐3,91002620,0
24.02 08:00-14,3-19,72,3 ⇙4,01001610,0
24.02 07:00-14,7-20,72,7 ⇙4,31000580,0
Position: (69.24417,-53.52886)

[Back]